Tracking 29892 objects as of 21-Nov-2024
HD Live streaming from Space Station
objects crossing your sky now

STARLINK-3207

Track STARLINK-3207 now!
10-day predictions
STARLINK-3207 is classified as:


NORAD ID: 49756
Int'l Code: 2021-115AJ
Perigee: 545.7 km
Apogee: 548.1 km
Inclination: 53.2 °
Period: 95.4 minutes
Semi major axis: 6917 km
RCS: Unknown
Launch date: December 2, 2021
Source: United States (US)
Launch site: AIR FORCE EASTERN TEST RANGE (AFETR)
Your satellite tracking list
Your tracking list is empty




NASA's NSSDC Master Catalog

Two Line Element Set (TLE):
1 49756U 21115AJ  24325.80560823  .00001011  00000-0  81605-4 0  9996
2 49756  53.2166 106.4683 0001733  75.6854 284.4330 15.08846290165248
Source of the keplerian elements: AFSPC